Weather History for Gadsden, AL

Change the Weather History Date:

Wednesday, March 28, 2012

  Actual Average Record
Temperature  
Mean Temperature 66 °F -  
Max Temperature 80 °F 65 °F 82 °F (1945)
Min Temperature 51 °F 41 °F 26 °F (2001)
Growing Degree Days 16 (Base 50)    
Moisture  
Dew Point 52 °F    
Average Humidity 66    
Maximum Humidity 94    
Minimum Humidity 36    
Precipitation  
Precipitation 0.00 in - - ()
Sea Level Pressure  
Sea Level Pressure 30.13 in    
Wind  
Wind Speed 2 mph (SW)    
Max Wind Speed 13 mph    
Max Gust Speed 21 mph    
Visibility 10 miles    
Events      
Averages and records for this station are not official NWS values.
T = Trace of Precipitation, MM = Missing Value Source: NWS Daily Summary

Daily Weather History Graph

Daily Weather History Graph

Search for Another Location

Airport:

Trip Planner

Search our weather history database for the weather conditions in past years. The results will help you decide how hot, cold, wet, or windy it might be!

Date:

Astronomy

Mar. 28, 2012 Rise Set
Actual Time 6:36 AM CDT 7:02 PM CDT
Civil Twilight 6:11 AM CDT 7:27 PM CDT
Nautical Twilight 5:42 AM CDT 7:57 PM CDT
Astronomical Twilight 5:12 AM CDT 8:26 PM CDT
Moon 10:07 AM CDT (3/28) No Moon Set
Length of Visible Light 13h 16m
Length of Day
12h 26m
Waxing Crescent, 30% of the Moon is Illuminated
Mar 28
Waxing Crescent
Mar 30
First Quarter
Apr 6
Full
Apr 13
Last Quarter
Apr 21
New

Hourly Weather History & Observations

Time (CDT) Temp. Heat Index Dew Point Humidity Pressure Visibility Wind Dir Wind Speed Gust Speed Precip Events Conditions
12:15 AM 55.4 °F - 51.8 °F 88% 30.14 in 10.0 mi Calm Calm - N/A   Clear
12:35 AM 55.4 °F - 51.8 °F 88% 30.14 in 10.0 mi Calm Calm - N/A   Clear
12:55 AM 55.4 °F - 53.6 °F 94% 30.14 in 10.0 mi Calm Calm - N/A   Clear
1:15 AM 57.2 °F - 53.6 °F 88% 30.14 in 10.0 mi Calm Calm - N/A   Clear
1:35 AM 55.4 °F - 51.8 °F 88% 30.14 in 10.0 mi Calm Calm - N/A   Clear
1:55 AM 55.4 °F - 51.8 °F 88% 30.13 in 10.0 mi Calm Calm - N/A   Clear
2:15 AM 53.6 °F - 51.8 °F 94% 30.14 in 10.0 mi Calm Calm - N/A   Clear
2:35 AM 53.6 °F - 51.8 °F 94% 30.13 in 10.0 mi Calm Calm - N/A   Clear
2:55 AM 53.6 °F - 51.8 °F 94% 30.13 in 10.0 mi Calm Calm - N/A   Clear
3:15 AM 53.6 °F - 50.0 °F 88% 30.13 in 10.0 mi West 5.8 mph - N/A   Clear
3:35 AM 53.6 °F - 51.8 °F 94% 30.13 in 10.0 mi Calm Calm - N/A   Clear
3:55 AM 53.6 °F - 50.0 °F 88% 30.13 in 10.0 mi Calm Calm - N/A   Clear
4:15 AM 53.6 °F - 50.0 °F 88% 30.13 in 10.0 mi Calm Calm - N/A   Clear
4:35 AM 51.8 °F - 50.0 °F 94% 30.14 in 10.0 mi Calm Calm - N/A   Clear
4:55 AM 53.6 °F - 51.8 °F 94% 30.15 in 10.0 mi Calm Calm - N/A   Clear
5:15 AM 51.8 °F - 48.2 °F 88% 30.15 in 10.0 mi Calm Calm - N/A   Clear
5:35 AM 53.6 °F - 51.8 °F 94% 30.16 in 10.0 mi Calm Calm - N/A   Clear
5:55 AM 53.6 °F - 50.0 °F 88% 30.17 in 10.0 mi Calm Calm - N/A   Clear
6:15 AM 53.6 °F - 50.0 °F 88% 30.17 in 10.0 mi Calm Calm - N/A   Clear
6:35 AM 51.8 °F - 50.0 °F 94% 30.17 in 9.0 mi Calm Calm - N/A   Clear
6:55 AM 51.8 °F - 50.0 °F 94% 30.18 in 9.0 mi Calm Calm - N/A   Clear
7:15 AM 51.8 °F - 50.0 °F 94% 30.18 in 9.0 mi Calm Calm - N/A   Clear
7:35 AM 53.6 °F - 51.8 °F 94% 30.19 in 9.0 mi Calm Calm - N/A   Clear
7:55 AM 55.4 °F - 51.8 °F 88% 30.19 in 10.0 mi Calm Calm - N/A   Clear
8:15 AM 57.2 °F - 53.6 °F 88% 30.19 in 10.0 mi Calm Calm - N/A   Clear
8:35 AM 57.2 °F - 53.6 °F 88% 30.20 in 10.0 mi Calm Calm - N/A   Partly Cloudy
8:55 AM 60.8 °F - 55.4 °F 82% 30.20 in 10.0 mi Calm Calm - N/A   Partly Cloudy
9:15 AM 62.6 °F - 55.4 °F 77% 30.20 in 10.0 mi Calm Calm - N/A   Partly Cloudy
9:36 AM 64.4 °F - 55.4 °F 73% 30.19 in 10.0 mi Calm Calm - N/A   Scattered Clouds
9:55 AM 68.0 °F - 55.4 °F 64% 30.19 in 10.0 mi Calm Calm - N/A   Partly Cloudy
10:15 AM 69.8 °F - 55.4 °F 60% 30.19 in 10.0 mi Calm Calm - N/A   Clear
10:35 AM 71.6 °F - 55.4 °F 57% 30.19 in 10.0 mi South 4.6 mph - N/A   Clear
10:55 AM 73.4 °F - 55.4 °F 53% 30.19 in 10.0 mi SW 6.9 mph - N/A   Clear
11:15 AM 75.2 °F - 55.4 °F 50% 30.18 in 10.0 mi SW 8.1 mph - N/A   Clear
11:35 AM 78.8 °F - 53.6 °F 42% 30.17 in 10.0 mi SSW 6.9 mph - N/A   Clear
11:55 AM 78.8 °F - 53.6 °F 42% 30.16 in 10.0 mi WSW 5.8 mph 17.3 mph N/A   Clear
12:15 PM 78.8 °F - 51.8 °F 39% 30.15 in 10.0 mi SW 11.5 mph 18.4 mph N/A   Clear
12:35 PM 80.6 °F 80.3 °F 53.6 °F 39% 30.14 in 10.0 mi SW 11.5 mph 20.7 mph N/A   Clear
12:55 PM 78.8 °F - 51.8 °F 39% 30.13 in 10.0 mi West 10.4 mph 17.3 mph N/A   Partly Cloudy
1:15 PM 78.8 °F - 51.8 °F 39% 30.12 in 10.0 mi SW 5.8 mph - N/A   Partly Cloudy
1:35 PM 78.8 °F - 51.8 °F 39% 30.11 in 10.0 mi SW 8.1 mph 17.3 mph N/A   Partly Cloudy
1:55 PM 78.8 °F - 51.8 °F 39% 30.10 in 10.0 mi WSW 9.2 mph - N/A   Clear
2:15 PM 78.8 °F - 51.8 °F 39% 30.09 in 10.0 mi SW 9.2 mph - N/A   Clear
2:35 PM 80.6 °F - 51.8 °F 37% 30.08 in 10.0 mi WSW 12.7 mph 18.4 mph N/A   Clear
3:15 PM 80.6 °F - 51.8 °F 37% 30.06 in 10.0 mi SW 10.4 mph - N/A   Clear
3:35 PM 80.6 °F - 51.8 °F 37% 30.06 in 10.0 mi SW 12.7 mph 18.4 mph N/A   Clear
3:55 PM 80.6 °F - 51.8 °F 37% 30.06 in 10.0 mi SW 8.1 mph 16.1 mph N/A   Clear
4:15 PM 80.6 °F - 51.8 °F 37% 30.05 in 10.0 mi SW 9.2 mph - N/A   Clear
4:35 PM 78.8 °F - 50.0 °F 36% 30.05 in 10.0 mi SW 5.8 mph - N/A   Clear
4:55 PM 80.6 °F - 51.8 °F 37% 30.04 in 10.0 mi WSW 8.1 mph - N/A   Clear
5:15 PM 78.8 °F - 50.0 °F 36% 30.04 in 10.0 mi SW 8.1 mph - N/A   Clear
5:35 PM 78.8 °F - 50.0 °F 36% 30.04 in 10.0 mi SW 8.1 mph - N/A   Clear
5:55 PM 77.0 °F - 50.0 °F 39% 30.04 in 10.0 mi SW 5.8 mph - N/A   Clear
6:15 PM 75.2 °F - 48.2 °F 38% 30.03 in 10.0 mi SW 6.9 mph - N/A   Clear
6:35 PM 75.2 °F - 48.2 °F 38% 30.04 in 10.0 mi SW 3.5 mph - N/A   Clear
6:55 PM 73.4 °F - 50.0 °F 44% 30.04 in 10.0 mi SW 4.6 mph - N/A   Clear
7:15 PM 71.6 °F - 50.0 °F 46% 30.04 in 10.0 mi SW 5.8 mph - N/A   Clear
7:35 PM 68.0 °F - 51.8 °F 56% 30.04 in 10.0 mi SW 4.6 mph - N/A   Clear
7:55 PM 64.4 °F - 51.8 °F 64% 30.05 in 10.0 mi SW 3.5 mph - N/A   Clear
8:15 PM 64.4 °F - 51.8 °F 64% 30.05 in 10.0 mi WSW 4.6 mph - N/A   Clear
8:35 PM 64.4 °F - 51.8 °F 64% 30.05 in 10.0 mi SW 4.6 mph - N/A   Clear
8:55 PM 64.4 °F - 51.8 °F 64% 30.06 in 10.0 mi SW 4.6 mph - N/A   Clear
9:15 PM 62.6 °F - 51.8 °F 68% 30.06 in 10.0 mi Calm Calm - N/A   Clear
9:35 PM 60.8 °F - 51.8 °F 72% 30.06 in 10.0 mi Calm Calm - N/A   Clear
9:55 PM 59.0 °F - 51.8 °F 77% 30.06 in 10.0 mi Calm Calm - N/A   Clear
10:15 PM 57.2 °F - 51.8 °F 82% 30.05 in 10.0 mi Calm Calm - N/A   Clear
10:35 PM 57.2 °F - 51.8 °F 82% 30.06 in 10.0 mi Calm Calm - N/A   Clear
10:55 PM 55.4 °F - 51.8 °F 88% 30.06 in 10.0 mi Calm Calm - N/A   Clear
11:15 PM 57.2 °F - 51.8 °F 82% 30.06 in 10.0 mi Calm Calm - N/A   Clear
11:35 PM 55.4 °F - 51.8 °F 88% 30.05 in 10.0 mi Calm Calm - N/A   Clear
11:55 PM 55.4 °F - 51.8 °F 88% 30.05 in 10.0 mi WSW 3.5 mph - N/A   Clear